KB9JNN Weather Reports


time (UTC)temp
F
wind
direction
speed
knots
gust
knots
rain 1hr
in
rain 24hr
in
rain mn
in
humidity
%
barometer
mb
20260505093036 39 184 0.0 1.7 0.00 0.00 0.00 61 1005.8
20260505091538 40 210 0.0 0.9 0.00 0.00 0.00 58 1005.4
20260505090036 41 214 0.0 2.6 0.00 0.00 0.00 57 1005.0
20260505084541 42 214 0.9 3.5 0.00 0.00 0.00 55 1004.9
20260505083033 42 221 1.7 3.5 0.00 0.00 0.00 55 1004.5
20260505081537 43 252 2.6 8.7 0.00 0.00 0.00 52 1004.3
20260505080036 44 271 4.3 7.8 0.00 0.00 0.00 50 1004.4
20260505074537 45 288 3.5 9.6 0.00 0.00 0.00 49 1004.3
20260505073042 45 255 6.1 16.5 0.00 0.00 0.00 48 1004.2
20260505071533 45 271 5.2 10.4 0.00 0.00 0.00 51 1004.2
20260505070040 45 247 4.3 7.8 0.00 0.00 0.00 51 1004.3
20260505064533 46 248 5.2 12.2 0.00 0.00 0.00 49 1004.1
20260505063035 47 259 7.8 13.0 0.00 0.00 0.00 46 1004.0
20260505061540 48 246 7.8 13.9 0.00 0.00 0.00 47 1004.1
20260505060034 48 281 8.7 14.8 0.00 0.00 0.00 49 1003.8
20260505054538 48 264 8.7 17.4 0.00 0.00 0.00 48 1003.7
20260505053036 49 255 8.7 16.5 0.00 0.00 0.00 47 1003.5
20260505051536 49 250 10.4 19.1 0.00 0.00 0.00 47 1003.2
20260505041546 52 252 10.4 14.8 0.00 0.00 0.00 47 1001.8
20260505040048 53 229 7.0 11.3 0.00 0.00 0.00 47 1001.5
20260505034536 53 243 7.8 18.2 0.00 0.00 0.00 45 1001.3
20260505033030 54 207 8.7 16.5 0.00 0.00 0.00 47 1000.9
20260505031539 54 257 9.6 14.8 0.00 0.00 0.00 45 1000.6
20260505030032 55 283 6.1 11.3 0.00 0.00 0.00 46 999.8
20260505024543 56 251 8.7 16.5 0.00 0.00 0.00 43 999.0
20260505023038 56 248 8.7 15.6 0.00 0.00 0.00 43 999.1
20260505021534 58 238 9.6 17.4 0.00 0.00 0.00 41 999.2
20260505020036 59 243 9.6 16.5 0.00 0.00 0.00 37 999.1
20260505014553 60 251 9.6 16.5 0.00 0.00 0.00 34 998.6
20260505013035 60 233 7.8 14.8 0.00 0.00 0.00 33 998.2
20260505011535 61 255 9.6 16.5 0.00 0.00 0.00 31 998.0
20260505010033 62 252 7.8 15.6 0.00 0.00 0.00 34 997.6
20260505004540 63 239 8.7 17.4 0.00 0.00 0.00 33 997.3
20260505003032 64 236 7.8 16.5 0.00 0.00 0.00 34 997.0
20260505001535 64 236 8.7 14.8 0.00 0.00 0.00 34 996.9
20260505000045 65 241 9.6 15.6 0.00 0.00 0.00 33 996.7
20260504234538 66 224 11.3 18.2 0.00 0.00 0.00 32 996.4
20260504233043 66 243 9.6 17.4 0.00 0.00 0.00 32 996.3
20260504231532 67 239 12.2 17.4 0.00 0.00 0.00 32 996.2
20260504230038 68 266 9.6 18.2 0.00 0.00 0.00 34 996.1
20260504224539 69 224 8.7 19.1 0.00 0.00 0.00 35 996.0
20260504223052 70 229 10.4 20.0 0.00 0.00 0.00 35 995.8
20260504221538 70 243 13.9 20.0 0.00 0.00 0.00 34 995.5
20260504220036 71 252 11.3 19.1 0.00 0.00 0.00 36 995.4
20260504214535 71 228 10.4 19.1 0.00 0.00 0.00 39 995.3
20260504213049 72 245 12.2 19.1 0.00 0.00 0.00 36 995.0
20260504211535 73 217 13.0 23.5 0.00 0.00 0.00 35 995.0
20260504210040 74 243 12.2 22.6 0.00 0.00 0.00 36 994.7
20260504204544 75 226 7.0 15.6 0.00 0.00 0.00 39 994.8
20260504203042 75 224 9.6 17.4 0.00 0.00 0.00 37 994.8
20260504201535 74 205 8.7 16.5 0.00 0.00 0.00 36 994.7
20260504200035 74 207 6.1 13.9 0.00 0.00 0.00 37 994.9
20260504194533 75 206 9.6 18.2 0.00 0.00 0.00 36 994.9
20260504193030 74 193 11.3 20.9 0.00 0.00 0.00 35 994.9
20260504191536 74 217 11.3 16.5 0.00 0.00 0.00 35 995.0
20260504190037 75 223 9.6 19.1 0.00 0.00 0.00 34 994.9
20260504184535 75 189 9.6 20.0 0.00 0.00 0.00 33 995.1
20260504183034 75 229 9.6 24.3 0.00 0.00 0.00 33 995.1
20260504181543 74 240 12.2 22.6 0.00 0.00 0.00 33 995.1
20260504180035 74 198 11.3 20.0 0.00 0.00 0.00 35 994.9
20260504174536 74 174 11.3 21.7 0.00 0.00 0.00 34 995.1
20260504173032 73 208 9.6 21.7 0.00 0.00 0.00 34 995.2
20260504171542 74 191 13.9 20.0 0.00 0.00 0.00 33 995.4